This is the latest recevied weather packets stored in our database for station/object N3AVN. If no packets are shown the sender has not sent any weather packets the latest 1 day(s).
| Time | Temp. | Humidity | Pressure | Rain* | Wind** | Luminosity | Snow |
|---|---|---|---|---|---|---|---|
| 1778026221 | 20° C | 62% | 1006.8 hPa | 0 mm | 0.89 m/s, 71° | 0 W/m² | - |
| 1778025919 | 20° C | 62% | 1006.7 hPa | 0 mm | 0 m/s | 0 W/m² | - |
| 1778025616 | 20° C | 62% | 1006.6 hPa | 0 mm | 0 m/s | 0 W/m² | - |
| 1778025314 | 20° C | 61% | 1006.6 hPa | 0 mm | 2.24 m/s, 223° | 0 W/m² | - |
| 1778025010 | 20° C | 61% | 1006.4 hPa | 0 mm | 1.34 m/s, 323° | 0 W/m² | - |
| 1778024707 | 20.56° C | 61% | 1006.3 hPa | 0 mm | 1.34 m/s, 208° | 0 W/m² | - |
| 1778024404 | 20.56° C | 60% | 1006.3 hPa | 0 mm | 0 m/s | 2 W/m² | - |
| 1778024102 | 20.56° C | 60% | 1006.4 hPa | 0 mm | 1.34 m/s, 347° | 4 W/m² | - |
| 1778023799 | 20.56° C | 60% | 1006.3 hPa | 0 mm | 1.34 m/s, 222° | 6 W/m² | - |
| 1778023497 | 20.56° C | 60% | 1006 hPa | 0 mm | 2.68 m/s, 172° | 10 W/m² | - |
| 1778023194 | 20.56° C | 59% | 1006 hPa | 0 mm | 0.89 m/s, 127° | 11 W/m² | - |
| 1778022891 | 21.11° C | 59% | 1006.1 hPa | 0 mm | 2.24 m/s, 39° | 13 W/m² | - |
| 1778022589 | 21.11° C | 58% | 1006.1 hPa | 0 mm | 2.24 m/s, 97° | 17 W/m² | - |
| 1778022287 | 21.11° C | 58% | 1006 hPa | 0 mm | 1.79 m/s, 59° | 21 W/m² | - |
| 1778021983 | 21.67° C | 58% | 1005.7 hPa | 0 mm | 0.89 m/s, 85° | 23 W/m² | - |
| 1778021680 | 21.67° C | 58% | 1005.9 hPa | 0 mm | 0.89 m/s, 199° | 29 W/m² | - |
| 1778021376 | 21.67° C | 57% | 1005.7 hPa | 0 mm | 2.24 m/s, 77° | 37 W/m² | - |
| 1778021073 | 22.22° C | 57% | 1005.8 hPa | 0 mm | 0.89 m/s, 96° | 43 W/m² | - |
| 1778020770 | 22.22° C | 56% | 1005.9 hPa | 0 mm | 2.24 m/s, 94° | 48 W/m² | - |
| 1778020467 | 22.22° C | 56% | 1005.6 hPa | 0 mm | 0 m/s | 54 W/m² | - |
| 1778020163 | 22.22° C | 56% | 1005.7 hPa | 0 mm | 2.24 m/s, 242° | 55 W/m² | - |
| 1778019860 | 22.22° C | 55% | 1005.6 hPa | 0 mm | 1.34 m/s, 209° | 54 W/m² | - |
| 1778019556 | 22.22° C | 55% | 1005.7 hPa | 0 mm | 0 m/s | 53 W/m² | - |
| 1778019253 | 22.22° C | 55% | 1005.6 hPa | 0 mm | 1.79 m/s, 213° | 51 W/m² | - |
| 1778018950 | 22.78° C | 54% | 1005.6 hPa | 0 mm | 2.24 m/s, 135° | 44 W/m² | - |
* Rain latest hour (hover to see other rain measurements)
** Current wind speed in m/s (hover to see current wind gust speed)